This is the latest recevied weather packets stored in our database for station/object S56VIL-11. If no packets are shown the sender has not sent any weather packets the latest 10 day(s).
| Time | Temp. | Humidity | Pressure | Rain* | Wind** | Luminosity | Snow |
|---|---|---|---|---|---|---|---|
| 1788408631 | 18.89° C | 58% | 1033.2 hPa | - | - | - | - |
| 1788407731 | 18.89° C | 58% | 1033.3 hPa | - | - | - | - |
| 1788406831 | 18.33° C | 59% | 1033.1 hPa | - | - | - | - |
| 1788405931 | 18.89° C | 58% | 1033.1 hPa | - | - | - | - |
| 1788405031 | 18.89° C | 58% | 1033.2 hPa | - | - | - | - |
| 1788404131 | 18.89° C | 58% | 1033.2 hPa | - | - | - | - |
| 1788403234 | 18.33° C | 58% | 1033.3 hPa | - | - | - | - |
| 1788402312 | 18.89° C | 58% | 1033.4 hPa | - | - | - | - |
| 1788380696 | 20° C | 58% | 1033.1 hPa | - | - | - | - |
| 1788379799 | 20° C | 59% | 1033 hPa | - | - | - | - |
| 1788378896 | 20° C | 59% | 1033.1 hPa | - | - | - | - |
| 1788377095 | 21.11° C | 59% | 1033.1 hPa | - | - | - | - |
| 1788374395 | 21.11° C | 59% | 1032.8 hPa | - | - | - | - |
| 1788373495 | 21.11° C | 60% | 1032.6 hPa | - | - | - | - |
| 1788372595 | 21.11° C | 59% | 1032.3 hPa | - | - | - | - |
| 1788370795 | 21.67° C | 59% | 1032.1 hPa | - | - | - | - |
| 1788369895 | 22.22° C | 59% | 1031.9 hPa | - | - | - | - |
| 1788368998 | 22.22° C | 59% | 1031.9 hPa | - | - | - | - |
| 1788368095 | 22.78° C | 59% | 1031.6 hPa | - | - | - | - |
| 1788367195 | 23.89° C | 58% | 1031.7 hPa | - | - | - | - |
| 1788366295 | 25.56° C | 57% | 1031.7 hPa | - | - | - | - |
| 1788365395 | 26.67° C | 57% | 1031.7 hPa | - | - | - | - |
| 1788359094 | 30° C | 55% | 1032.2 hPa | - | - | - | - |
| 1788356394 | 26.67° C | 56% | 1032.5 hPa | - | - | - | - |
| 1788355494 | 26.67° C | 57% | 1032.6 hPa | - | - | - | - |
* Rain since midnight (hover to see other rain measurements)
** Current wind speed in m/s (hover to see current wind gust speed)